DAL9409 KATL-KMIA

Flight info

Callsign DAL9409
Flight time N/A
Altitude 41000
Route BANNG3 LUCKK HONID FROGZ5
Aircraft A359/H-SDE2E3GHIJ3J4J5LM1ORWXY/LB1D1

Departure

Time 2026-05-04 01:21
Airport Hartsfield Jackson Atlanta International Airport (KATL)

Arrival

Time N/A
Airport Miami International Airport (KMIA)
Time Latitude Longitude Altitude Speed Heading
2026-05-04 01:05 33.63800 -84.42039 1042 ft 0 kts 89°
2026-05-04 01:13 33.63799 -84.42052 1042 ft 4 kts 93°
2026-05-04 01:13 33.63801 -84.42084 1042 ft 4 kts 85°
2026-05-04 01:14 33.63800 -84.42116 1042 ft 4 kts 96°
2026-05-04 01:14 33.63806 -84.42146 1044 ft 4 kts 127°
2026-05-04 01:14 33.63822 -84.42160 1043 ft 1 kts 180°
2026-05-04 01:14 33.63823 -84.42160 1043 ft 0 kts 180°
2026-05-04 01:16 33.63810 -84.42160 1044 ft 7 kts 181°
2026-05-04 01:17 33.63754 -84.42161 1042 ft 10 kts 181°
2026-05-04 01:17 33.63681 -84.42150 1042 ft 11 kts 149°
2026-05-04 01:17 33.63657 -84.42058 1042 ft 13 kts 92°
2026-05-04 01:17 33.63652 -84.41933 1042 ft 17 kts 92°
2026-05-04 01:18 33.63655 -84.41783 1041 ft 19 kts 87°
2026-05-04 01:18 33.63655 -84.41613 1041 ft 22 kts 90°
2026-05-04 01:18 33.63654 -84.41446 1041 ft 19 kts 90°
2026-05-04 01:18 33.63655 -84.41275 1041 ft 21 kts 89°
2026-05-04 01:19 33.63654 -84.41088 1042 ft 24 kts 91°
2026-05-04 01:19 33.63655 -84.40882 1042 ft 26 kts 89°
2026-05-04 01:19 33.63612 -84.40756 1042 ft 14 kts 160°
2026-05-04 01:19 33.63529 -84.40745 1042 ft 13 kts 178°
2026-05-04 01:20 33.63474 -84.40810 1042 ft 13 kts 264°
2026-05-04 01:20 33.63473 -84.40863 1043 ft 0 kts 269°
2026-05-04 01:20 33.63471 -84.41038 1041 ft 57 kts 270°
2026-05-04 01:21 33.63474 -84.41813 1042 ft 126 kts 270°
2026-05-04 01:21 33.63471 -84.43088 1163 ft 171 kts 269°
2026-05-04 01:21 33.63433 -84.44504 2034 ft 166 kts 270°
2026-05-04 01:21 33.63426 -84.45917 2709 ft 178 kts 271°
2026-05-04 01:22 33.63432 -84.47518 3023 ft 206 kts 271°
2026-05-04 01:22 33.63439 -84.49365 3314 ft 236 kts 270°
2026-05-04 01:22 33.63444 -84.51415 3897 ft 252 kts 270°
2026-05-04 01:22 33.63447 -84.53541 4741 ft 257 kts 270°
2026-05-04 01:23 33.63449 -84.55690 5603 ft 261 kts 270°
2026-05-04 01:23 33.63450 -84.57902 6464 ft 267 kts 271°
2026-05-04 01:23 33.63451 -84.60149 7334 ft 271 kts 271°
2026-05-04 01:23 33.63439 -84.62419 8293 ft 274 kts 270°
2026-05-04 01:24 33.63082 -84.64677 9243 ft 280 kts 250°
2026-05-04 01:24 33.61989 -84.66631 10171 ft 289 kts 226°
2026-05-04 01:24 33.60328 -84.68033 11038 ft 295 kts 212°
2026-05-04 01:24 33.58472 -84.69140 11925 ft 302 kts 202°
2026-05-04 01:25 33.56385 -84.69517 12835 ft 309 kts 179°
2026-05-04 01:25 33.54237 -84.69201 13758 ft 313 kts 173°
2026-05-04 01:25 33.52071 -84.68760 14553 ft 318 kts 173°
2026-05-04 01:25 33.49909 -84.68324 15316 ft 321 kts 173°
2026-05-04 01:26 33.47698 -84.67890 16081 ft 325 kts 173°
2026-05-04 01:26 33.45453 -84.67458 16832 ft 329 kts 173°
2026-05-04 01:26 33.43155 -84.67005 17602 ft 333 kts 172°
2026-05-04 01:26 33.40906 -84.66212 18283 ft 343 kts 161°
2026-05-04 01:27 33.38657 -84.65056 18613 ft 361 kts 158°
2026-05-04 01:27 33.36346 -84.63791 18884 ft 378 kts 158°
2026-05-04 01:27 33.33901 -84.62454 19174 ft 395 kts 158°
2026-05-04 01:27 33.31352 -84.61068 19538 ft 408 kts 158°
2026-05-04 01:28 33.28741 -84.59654 20120 ft 415 kts 158°
2026-05-04 01:28 33.26096 -84.58225 20786 ft 420 kts 158°
2026-05-04 01:28 33.23413 -84.56778 21472 ft 425 kts 158°
2026-05-04 01:28 33.20705 -84.55320 22151 ft 429 kts 158°
2026-05-04 01:29 33.17974 -84.53852 22837 ft 433 kts 158°
2026-05-04 01:29 33.15208 -84.52366 23515 ft 438 kts 158°
2026-05-04 01:29 33.12428 -84.50874 24087 ft 442 kts 158°
2026-05-04 01:29 33.09606 -84.49360 24640 ft 446 kts 158°
2026-05-04 01:30 33.06765 -84.47838 25191 ft 451 kts 158°
2026-05-04 01:30 33.03888 -84.46296 25736 ft 455 kts 158°
2026-05-04 01:30 33.00992 -84.44747 26290 ft 459 kts 157°
2026-05-04 01:30 32.98040 -84.43278 26845 ft 461 kts 162°
2026-05-04 01:31 32.94939 -84.42321 27381 ft 462 kts 173°
2026-05-04 01:31 32.91724 -84.42006 27931 ft 464 kts 180°
2026-05-04 01:31 32.88488 -84.41936 28452 ft 467 kts 181°
2026-05-04 01:31 32.86328 -84.41906 28791 ft 470 kts 181°
2026-05-04 01:32 32.83046 -84.41855 29308 ft 474 kts 181°
2026-05-04 01:32 32.79731 -84.41798 29814 ft 478 kts 181°
2026-05-04 01:32 32.76400 -84.41736 30276 ft 481 kts 181°
2026-05-04 01:32 32.73049 -84.41671 30822 ft 481 kts 182°
2026-05-04 01:33 32.69704 -84.41605 31314 ft 482 kts 182°
2026-05-04 01:33 32.66338 -84.41539 31710 ft 485 kts 182°
2026-05-04 01:33 32.62957 -84.41472 32088 ft 487 kts 182°
2026-05-04 01:33 32.59566 -84.41405 32462 ft 489 kts 182°
2026-05-04 01:34 32.56148 -84.41337 32830 ft 492 kts 182°
2026-05-04 01:34 32.52718 -84.41268 33190 ft 494 kts 182°
2026-05-04 01:34 32.49277 -84.41200 33529 ft 496 kts 183°
2026-05-04 01:34 32.45855 -84.41129 34187 ft 489 kts 184°
2026-05-04 01:35 32.42474 -84.41059 34787 ft 484 kts 184°
2026-05-04 01:35 32.39115 -84.40992 35128 ft 484 kts 184°
2026-05-04 01:35 32.35744 -84.40927 35439 ft 485 kts 184°
2026-05-04 01:35 32.32367 -84.40861 35794 ft 484 kts 184°
2026-05-04 01:36 32.29003 -84.40793 36151 ft 484 kts 184°
2026-05-04 01:36 32.25638 -84.40724 36499 ft 483 kts 185°
2026-05-04 01:36 32.22281 -84.40657 36809 ft 483 kts 185°
2026-05-04 01:36 32.18929 -84.40590 37259 ft 479 kts 185°
2026-05-04 01:37 32.15608 -84.40523 37657 ft 477 kts 185°
2026-05-04 01:37 32.12326 -84.40459 37940 ft 478 kts 186°
2026-05-04 01:37 32.09002 -84.40394 38212 ft 478 kts 186°
2026-05-04 01:37 32.05632 -84.40327 38513 ft 478 kts 186°
2026-05-04 01:38 32.02358 -84.40262 38797 ft 477 kts 186°
2026-05-04 01:38 31.99042 -84.40196 39028 ft 477 kts 186°
2026-05-04 01:38 31.95734 -84.40130 39217 ft 477 kts 186°
2026-05-04 01:38 31.92421 -84.40064 39452 ft 475 kts 186°
2026-05-04 01:39 31.89112 -84.39997 39720 ft 474 kts 186°
2026-05-04 01:39 31.85825 -84.39932 39883 ft 475 kts 187°
2026-05-04 01:39 31.82513 -84.39868 40040 ft 475 kts 187°
2026-05-04 01:39 31.79206 -84.39803 40221 ft 476 kts 187°
2026-05-04 01:40 31.75895 -84.39737 40408 ft 476 kts 187°
2026-05-04 01:40 31.72586 -84.39672 40590 ft 476 kts 187°
2026-05-04 01:40 31.69278 -84.39607 40751 ft 476 kts 187°
2026-05-04 01:40 31.65961 -84.39496 40899 ft 479 kts 184°
2026-05-04 01:41 31.62630 -84.38986 41070 ft 487 kts 177°
2026-05-04 01:41 31.55976 -84.37329 41134 ft 489 kts 175°
2026-05-04 01:42 31.49327 -84.35626 41128 ft 489 kts 175°
2026-05-04 01:42 31.42671 -84.33937 41128 ft 489 kts 176°
2026-05-04 01:43 31.36015 -84.32254 41125 ft 489 kts 176°
2026-05-04 01:43 31.29375 -84.30580 41129 ft 488 kts 176°
2026-05-04 01:44 31.22740 -84.28910 41119 ft 488 kts 176°
2026-05-04 01:44 31.16118 -84.27245 41128 ft 486 kts 177°
2026-05-04 01:45 31.09510 -84.25586 41114 ft 485 kts 177°
2026-05-04 01:45 30.99612 -84.23107 41124 ft 485 kts 177°
2026-05-04 01:46 30.93012 -84.21456 41127 ft 485 kts 177°
2026-05-04 01:46 30.86459 -84.19820 41131 ft 485 kts 177°
2026-05-04 01:47 30.79859 -84.18169 41119 ft 485 kts 178°
2026-05-04 01:47 30.73263 -84.16528 41125 ft 484 kts 178°
2026-05-04 01:48 30.66673 -84.14891 41122 ft 484 kts 178°
2026-05-04 01:48 30.60085 -84.13255 41117 ft 484 kts 178°
2026-05-04 01:49 30.53495 -84.11621 41118 ft 484 kts 178°
2026-05-04 01:49 30.46905 -84.09988 41117 ft 484 kts 178°
2026-05-04 01:50 30.40312 -84.08339 41110 ft 487 kts 176°
2026-05-04 01:50 30.37044 -84.07154 41115 ft 499 kts 167°
2026-05-04 01:50 30.33886 -84.05370 41122 ft 509 kts 160°
2026-05-04 01:51 30.27725 -84.01270 41119 ft 512 kts 159°
2026-05-04 01:51 30.21554 -83.97149 41122 ft 513 kts 160°
2026-05-04 01:52 30.15364 -83.93041 41123 ft 513 kts 160°
2026-05-04 01:52 30.09216 -83.88972 41124 ft 513 kts 160°
2026-05-04 01:53 30.03019 -83.84877 41125 ft 512 kts 160°
2026-05-04 01:53 29.96837 -83.80801 41114 ft 512 kts 160°
2026-05-04 01:54 29.90648 -83.76727 41120 ft 513 kts 161°
2026-05-04 01:54 29.84442 -83.72647 41119 ft 513 kts 161°
2026-05-04 01:55 29.78238 -83.68569 41116 ft 513 kts 161°
2026-05-04 01:55 29.72031 -83.64502 41113 ft 513 kts 161°
2026-05-04 01:56 29.65823 -83.60439 41065 ft 513 kts 161°
2026-05-04 01:56 29.59605 -83.56376 41104 ft 514 kts 161°
2026-05-04 01:57 29.53385 -83.52315 41095 ft 514 kts 161°
2026-05-04 01:57 29.47180 -83.48269 41107 ft 512 kts 161°
2026-05-04 01:58 29.40981 -83.44234 41100 ft 512 kts 161°
2026-05-04 01:58 29.34788 -83.40209 41091 ft 512 kts 162°
2026-05-04 01:59 29.28587 -83.36185 41100 ft 512 kts 162°
2026-05-04 01:59 29.22299 -83.32542 41100 ft 502 kts 167°
2026-05-04 02:00 29.15922 -83.29315 41097 ft 502 kts 168°
2026-05-04 02:00 29.09562 -83.26098 41097 ft 502 kts 168°
2026-05-04 02:01 29.03173 -83.22864 41099 ft 502 kts 168°
2026-05-04 02:01 28.96783 -83.19634 41085 ft 502 kts 168°
2026-05-04 02:02 28.90397 -83.16408 41086 ft 502 kts 168°
2026-05-04 02:02 28.84011 -83.13187 41088 ft 500 kts 168°
2026-05-04 02:03 28.77695 -83.10005 41034 ft 499 kts 169°
2026-05-04 02:03 28.71340 -83.06810 41094 ft 499 kts 169°
2026-05-04 02:04 28.64987 -83.03618 41079 ft 499 kts 169°
2026-05-04 02:04 28.58632 -83.00431 41073 ft 499 kts 169°
2026-05-04 02:05 28.52271 -82.97244 41078 ft 499 kts 169°
2026-05-04 02:05 28.45920 -82.94065 41051 ft 499 kts 169°
2026-05-04 02:06 28.39580 -82.90896 41079 ft 497 kts 169°
2026-05-04 02:06 28.33245 -82.87736 41075 ft 497 kts 169°
2026-05-04 02:07 28.26918 -82.84584 41072 ft 497 kts 169°
2026-05-04 02:07 28.20588 -82.81433 41070 ft 497 kts 169°
2026-05-04 02:08 28.14279 -82.78296 41060 ft 496 kts 170°
2026-05-04 02:08 28.07988 -82.75170 41092 ft 492 kts 170°
2026-05-04 02:09 28.01715 -82.72180 41089 ft 480 kts 175°
2026-05-04 02:09 27.98549 -82.71233 41094 ft 464 kts 183°
2026-05-04 02:09 27.95386 -82.70577 41089 ft 461 kts 184°
2026-05-04 02:10 27.89105 -82.69360 41092 ft 461 kts 184°
2026-05-04 02:10 27.82774 -82.68122 41090 ft 462 kts 184°
2026-05-04 02:11 27.76457 -82.66880 41082 ft 462 kts 184°
2026-05-04 02:11 27.70146 -82.65638 41082 ft 462 kts 184°
2026-05-04 02:12 27.63802 -82.64391 41079 ft 462 kts 184°
2026-05-04 02:12 27.57466 -82.63147 41075 ft 462 kts 184°
2026-05-04 02:13 27.51127 -82.61861 41066 ft 468 kts 180°
2026-05-04 02:13 27.44778 -82.59940 41071 ft 473 kts 178°
2026-05-04 02:14 27.38440 -82.58011 41082 ft 472 kts 179°
2026-05-04 02:14 27.32193 -82.56157 41082 ft 472 kts 179°
2026-05-04 02:15 27.25841 -82.54288 41053 ft 471 kts 179°
2026-05-04 02:15 27.19482 -82.52426 41073 ft 472 kts 179°
2026-05-04 02:16 27.13117 -82.50564 41070 ft 473 kts 179°
2026-05-04 02:16 27.06754 -82.48705 40913 ft 472 kts 179°
2026-05-04 02:17 27.03574 -82.47777 40671 ft 472 kts 179°
2026-05-04 02:17 27.00398 -82.46850 40425 ft 472 kts 179°
2026-05-04 02:17 26.97219 -82.45924 40180 ft 472 kts 179°
2026-05-04 02:17 26.94956 -82.45223 39861 ft 474 kts 176°
2026-05-04 02:18 26.91842 -82.43839 39281 ft 491 kts 166°
2026-05-04 02:18 26.88883 -82.41765 38579 ft 514 kts 154°
2026-05-04 02:18 26.86106 -82.39193 37785 ft 521 kts 150°
2026-05-04 02:18 26.83363 -82.36524 37056 ft 522 kts 150°
2026-05-04 02:19 26.80626 -82.33865 36305 ft 522 kts 150°
2026-05-04 02:19 26.77877 -82.31211 35537 ft 523 kts 150°
2026-05-04 02:19 26.75116 -82.28555 34729 ft 524 kts 149°
2026-05-04 02:19 26.72343 -82.25897 33885 ft 526 kts 149°
2026-05-04 02:20 26.69554 -82.23227 32863 ft 529 kts 149°
2026-05-04 02:20 26.66743 -82.20540 31834 ft 533 kts 148°
2026-05-04 02:20 26.63922 -82.17845 30798 ft 536 kts 148°
2026-05-04 02:20 26.61072 -82.15124 29829 ft 539 kts 147°
2026-05-04 02:21 26.59155 -82.13291 29328 ft 535 kts 147°
2026-05-04 02:21 26.56344 -82.10603 28629 ft 529 kts 147°
2026-05-04 02:21 26.53558 -82.07944 27932 ft 524 kts 147°
2026-05-04 02:21 26.50870 -82.05345 27295 ft 519 kts 146°
2026-05-04 02:22 26.48202 -82.02644 26646 ft 514 kts 145°
2026-05-04 02:22 26.45613 -82.00005 26033 ft 509 kts 145°
2026-05-04 02:22 26.43008 -81.97363 25402 ft 503 kts 145°
2026-05-04 02:22 26.40429 -81.94757 24777 ft 498 kts 144°
2026-05-04 02:23 26.37878 -81.92185 24168 ft 492 kts 144°
2026-05-04 02:23 26.35348 -81.89639 23536 ft 487 kts 144°
2026-05-04 02:23 26.32855 -81.87133 22946 ft 477 kts 144°
2026-05-04 02:23 26.30428 -81.84690 22831 ft 460 kts 144°
2026-05-04 02:24 26.28121 -81.82363 22710 ft 433 kts 145°
2026-05-04 02:24 26.25962 -81.80185 22567 ft 407 kts 146°
2026-05-04 02:24 26.24003 -81.77990 22270 ft 399 kts 136°
2026-05-04 02:24 26.22521 -81.75323 21724 ft 409 kts 123°
2026-05-04 02:25 26.21272 -81.72469 21237 ft 409 kts 121°
2026-05-04 02:25 26.20051 -81.69609 20765 ft 408 kts 121°
2026-05-04 02:25 26.18829 -81.66764 20315 ft 406 kts 121°
2026-05-04 02:25 26.17608 -81.63935 19846 ft 405 kts 122°
2026-05-04 02:26 26.16385 -81.61114 19388 ft 404 kts 122°
2026-05-04 02:26 26.15166 -81.58309 18928 ft 403 kts 122°
2026-05-04 02:26 26.13954 -81.55527 18470 ft 402 kts 122°
2026-05-04 02:26 26.12730 -81.52720 17916 ft 403 kts 121°
2026-05-04 02:27 26.11519 -81.49943 17430 ft 400 kts 121°
2026-05-04 02:27 26.10313 -81.47179 16976 ft 396 kts 121°
2026-05-04 02:27 26.09114 -81.44432 16495 ft 392 kts 121°
2026-05-04 02:27 26.07949 -81.41767 16080 ft 388 kts 121°
2026-05-04 02:28 26.06775 -81.39084 15673 ft 385 kts 121°
2026-05-04 02:28 26.05605 -81.36408 15240 ft 382 kts 120°
2026-05-04 02:28 26.04455 -81.33763 14818 ft 379 kts 120°
2026-05-04 02:28 26.03312 -81.31135 14399 ft 375 kts 120°
2026-05-04 02:29 26.02180 -81.28538 13992 ft 372 kts 120°
2026-05-04 02:29 26.01054 -81.25955 13542 ft 368 kts 119°
2026-05-04 02:29 25.99945 -81.23412 13114 ft 364 kts 119°
2026-05-04 02:29 25.98845 -81.20895 12691 ft 360 kts 119°
2026-05-04 02:30 25.97761 -81.18413 12311 ft 355 kts 119°
2026-05-04 02:30 25.96686 -81.15955 11911 ft 352 kts 119°
2026-05-04 02:30 25.95622 -81.13524 11529 ft 348 kts 119°
2026-05-04 02:30 25.94569 -81.11123 11125 ft 345 kts 119°
2026-05-04 02:31 25.93524 -81.08744 10736 ft 341 kts 119°
2026-05-04 02:31 25.92488 -81.06380 10349 ft 338 kts 118°
2026-05-04 02:31 25.91478 -81.04071 10197 ft 325 kts 118°
2026-05-04 02:31 25.90541 -81.01843 10067 ft 312 kts 116°